Home > Weather > Canberra > Past weeks

Flag for Australia Weather for the Past 2 Weeks in Canberra, Australian Capital Territory, Australia

Now
61 °F

Sprinkles. Overcast.


Feels Like: 61 °F
Forecast: 59 / 69 °F
Wind: 7 mph from Northwest

Location: Canberra Airport

Current Time: Apr 30, 2016 at 4:31:07 AM

Latest Report: Apr 30, 2016 at 4:00 AM


Visibility: N/A

Pressure: 30.07 "Hg (28.09 "Hg at 577m altitude)

Humidity: 94%

Dew Point: 59 °F

Location of CanberraLocation

Historic Weather in Canberra — Graph

°F

Canberra Temperature Yesterday

Maximum temperature yesterday: 75 °F (at 1:00 PM)
Minimum temperature yesterday: 48 °F (at 1:30 AM)
Average temperature yesterday: 60 °F

High & Low Weather Summary for the Past Weeks

 TemperatureHumidityPressure
High79 °F (Apr 15, 3:00 PM)100% (Apr 15, 3:00 AM)30.51 "Hg (Apr 15, 3:00 AM)
Low36 °F (Apr 26, 5:00 AM)18% (Apr 26, 4:00 PM)30.07 "Hg (Apr 29, 2:00 PM)
Average57 °F72%30.25 "Hg
* Reported Apr 15 3:00 AM — Apr 30 3:00 AM, Canberra, Weather by CustomWeather, © 2016

Note: Actual official high and low records may vary slightly from our data, if they occured in-between our weather recording intervals... More about our weather records

Advertising

Canberra Weather History for the Previous 24 Hours

Scroll right to see more
 ConditionsComfort  
Time TempWeatherWind HumidityBarometerVisibility
3:00 AM
Sat, Apr 30
61 °FSprinkles. Mostly cloudy.12 mph94%30.07 "HgN/A
2:30 AM61 °FLight rain. Mostly cloudy.10 mph94%30.07 "HgN/A
2:00 AM61 °FSprinkles. Mostly cloudy.13 mph94%30.07 "HgN/A
1:30 AM61 °FSprinkles. Overcast.10 mph94%30.09 "HgN/A
1:00 AM61 °FLight rain. Mostly cloudy.10 mph94%30.09 "HgN/A
12:00 AM61 °FClear.7 mph94%30.09 "HgN/A
11:00 PM
Fri, Apr 29
61 °FMostly cloudy.6 mph94%30.09 "HgN/A
10:30 PM61 °FPartly cloudy.8 mph94%30.12 "HgN/A
10:00 PM61 °FPartly cloudy.8 mph94%30.12 "HgN/A
9:00 PM61 °FSprinkles. Overcast.8 mph94%30.12 "HgN/A
8:00 PM61 °FLight rain. Mostly cloudy.6 mph94%30.12 "HgN/A
7:00 PM63 °FSprinkles. Mostly cloudy.7 mph83%30.12 "HgN/A
6:30 PM63 °FMostly cloudy.7 mph83%30.09 "HgN/A
6:00 PM63 °FScattered showers. Mostly cloudy.6 mph88%30.09 "HgN/A
5:30 PM63 °FSprinkles. Mostly cloudy.12 mph88%30.09 "Hg5 mi
5:00 PM64 °FSprinkles. Mostly cloudy.24 mph68%30.09 "Hg5 mi
4:30 PM72 °FScattered showers. Partly cloudy.16 mph47%30.07 "HgN/A
4:00 PM72 °FBroken clouds.16 mph47%30.07 "HgN/A
3:00 PM75 °FScattered clouds.17 mph39%30.07 "HgN/A
2:00 PM75 °FBroken clouds.13 mph34%30.07 "HgN/A
1:00 PM75 °FBroken clouds.13 mph36%30.09 "HgN/A
12:30 PM73 °FBroken clouds.14 mph38%30.12 "HgN/A
12:00 PM73 °FBroken clouds.10 mph38%30.12 "HgN/A
11:30 AM72 °FBroken clouds.8 mph44%30.15 "HgN/A
11:00 AM68 °FBroken clouds.7 mph49%30.18 "HgN/A
10:00 AM64 °FBroken clouds.3 mph56%30.18 "HgN/A
9:00 AM57 °FBroken clouds.No wind72%30.21 "HgN/A
8:00 AM54 °FSunny.No wind77%30.21 "Hg10 mi
7:00 AM48 °FBroken clouds.No wind87%30.21 "HgN/A
6:30 AM50 °FBroken clouds.No wind82%30.21 "HgN/A
6:00 AM48 °FPartly sunny.No wind87%30.21 "HgN/A
5:30 AM50 °FPassing clouds.No wind82%30.18 "HgN/A
5:00 AM48 °FPassing clouds.No wind87%30.18 "HgN/A
4:30 AM50 °FPassing clouds.No wind82%30.18 "HgN/A
4:00 AM48 °FPassing clouds.No wind87%30.18 "HgN/A
Weather by CustomWeather, © 2016

See weather overviewHow to use our weather pages